Regional Weather Roundup
Issued by NWS Bismarck, ND

Home | Current Version | Previous Version | Text Only | Print | Product List | Glossary On
Versions: 1 2 3 4 5 6 7 8 9 10 11 12 13 14 15 16 17 18 19 20 21 22 23 24 25 26 27 28 29 30 31 32 33 34 35 36 37 38 39 40 41 42 43 44 45 46 47 48 49 50
000
ASUS43 KBIS 300002
RWRBIS

NWR BROADCAST TEXT
NATIONAL WEATHER SERVICE BISMARCK ND
700 PM CDT MON MAY 29 2017

NOTE: "FAIR" INDICATES FEW OR NO CLOUDS BELOW 12,000 FEET WITH NO
SIGNIFICANT WEATHER AND/OR OBSTRUCTIONS TO VISIBILITY.


CITY           SKY/WX    TMP DP  RH WIND       PRES   REMARKS
WILLISTON      FAIR      69  28  21 N17G25    30.05F
MINOT          PTSUNNY   61  36  39 N16G28    29.97F
MINOT AFB      PTSUNNY   61  37  40 N18       29.96F
BISMARCK       PTSUNNY   66  37  34 N13G25    30.00F
DICKINSON      FAIR      63  27  25 NW17G25   30.04F
GARRISON         N/A     63  35  35 N22G31    29.99S
HETTINGER ARPT FAIR      64  31  28 NW22G31   30.07F
JAMESTOWN      CLOUDY    58  42  55 N17       29.93F
HAZEN          CLOUDY    63  34  34 NW14      30.02F
LINTON         MOCLDY    63  41  45 NW16G28   30.01F
MANDAN         MOCLDY    63  36  36 NW18G30   30.01F
STANLEY        FAIR      63  28  27 N23G31    30.03F
TIOGA          FAIR      64  27  24 NW24G31   30.04S
WATFORD CITY   FAIR      64  32  29 N20G25    30.04S
$$

CITY           SKY/WX    TMP DP  RH WIND       PRES   REMARKS
GRAND FORKS    CLOUDY    54  46  74 NW14      29.88F
GRAND FORKS AF CLOUDY    53  45  74 N14       29.89F
DEVILS LAKE    NOT AVBL
FARGO          CLOUDY    57  46  66 NW18      29.88F
CAVALIER       CLOUDY    48  43  81 NW16      29.89F
GRAFTON        CLOUDY    50  45  81 NW21G26   29.91S
GWINNER        CLOUDY    59  43  55 MISG      29.93S
LANGDON        CLOUDY    48  48 100 N13       29.92S
ROLLA          CLOUDY    52  43  71 NW23      29.95S
$$

CITY           SKY/WX    TMP DP  RH WIND       PRES   REMARKS
ABERDEEN       CLOUDY    64  34  32 NW22G30   29.96F
MOBRIDGE       FAIR      67  33  28 NW15      29.99F
BUFFALO          N/A     67  31  26 NW23G30   30.02F
RAPID CITY     FAIR      68  28  22 N20G28    30.08F
GLASGOW        FAIR      71  26  18 NW10      30.09F
SIDNEY         FAIR      68  31  25 N17G23    30.06F
WOLF POINT     FAIR      72  26  18 N13       30.07F
GLENDIVE       FAIR      69  27  20 N18       30.08F
MILES CITY     FAIR      72  23  16 NW15G24   30.09F
BAKER          FAIR      66  28  24 NW22G28   30.10F
$$

CITY           SKY/WX    TMP DP  RH WIND       PRES   REMARKS
BILLINGS       FAIR      74  38  27 NW8       30.12F
GREAT FALLS    FAIR      73  40  30 VRB7      30.09F
$$





USA.gov is the U.S. government's official web portal to all federal, state and local government web resources and services.